Starlink 30193

operational
NORAD ID: 57414 Int'l Des: 2023-102 Owner: SPXS Country: US Constellation: starlink
LEOCIRCULAR

Über Starlink 30193

Beschreibung wird geladen...

Live-Position

3D-Globus wird geladen...

Nächste Überflüge

Höhenverlauf

Altitude vs Time

uPlot chart will show altitude changes over time

Zweizeiliger Elementsatz

1 57414U 23102L 25353.28542915 .00000902 00000-0 81827-4 0 9994
2 57414 43.0044 325.5714 0001037 274.6590 85.4134 15.02540286134140
Epoch: 19. Dez. 2025 • Age: 9 hours

Aktueller Status

Höhe 558.8 km
Geschwindigkeit 7.59 km/s
Subsatellitenpunkt 19.87°N, 160.07°E
Startdatum 19. Juli 2023
Alter 2.4 years
Typ internet

Technische Details

Klassifizierung Payload
Masse 730.00 kg
Trockenmasse 700.00 kg
Gesamtmasse 730.00 kg
Länge 0.30 m
Durchmesser 4.10 m
Spannweite 29.00 m
Form Box + pan
Hersteller SPXS
Bus-Typ Starlink V2M
Phasenstatus In Orbit
Besitzer/Staat SPXS/US

Große Konstellationen

Loading constellations...